When you browse on this site, cookies collect data to enhance your experience and personalize the content and advertising you see.
Visit our Privacy Policy to learn more. By continuing to use the site, you agree to this use of cookies and data.
  • Em Portugal
  • Lista de países
  • Para 7 dias
  • Temperatura da água
  • Mapas de satélite
  • Mapa do tempo
  • Widgets de tempo
  • user-avatar
    Iniciar Sessão

    Previsão horária em Kamennyy Ovrag

    Hoje, 18 Abril, Quinta-feira

    Tempo Temperatura Precipitação Vento Pressão Humidade
    00:00 -2°C° 0 mm 2 m/s 767 mmHg 44%
    01:00 -2°C° 0 mm 2 m/s 767 mmHg 44%
    02:00 -1°C° 0 mm 1 m/s 767 mmHg 44%
    03:00 -1°C° 0 mm 1 m/s 767 mmHg 42%
    04:00 -1°C° 0 mm 1 m/s 767 mmHg 41%
    05:00 0°C° 0 mm 1 m/s 767 mmHg 39%
    06:00 0°C° 0 mm 1 m/s 767 mmHg 38%
    07:00 +1°C° 0 mm 1 m/s 767 mmHg 34%
    08:00 +2°C° 0 mm 1 m/s 767 mmHg 30%
    09:00 +3°C° 0 mm 1 m/s 767 mmHg 26%
    10:00 +3°C° 0 mm 1 m/s 767 mmHg 25%
    11:00 +4°C° 0 mm 1 m/s 767 mmHg 24%
    12:00 +4°C° 0 mm 2 m/s 767 mmHg 23%
    13:00 +4°C° 0 mm 2 m/s 766 mmHg 23%
    14:00 +5°C° 0 mm 2 m/s 766 mmHg 23%
    15:00 +5°C° 0 mm 2 m/s 765 mmHg 22%
    16:00 +5°C° 0 mm 2 m/s 765 mmHg 25%
    17:00 +4°C° 0 mm 2 m/s 765 mmHg 27%
    18:00 +4°C° 0 mm 2 m/s 765 mmHg 30%
    19:00 +3°C° 0 mm 2 m/s 765 mmHg 33%
    20:00 +2°C° 0 mm 2 m/s 765 mmHg 35%
    21:00 +2°C° 0 mm 1 m/s 765 mmHg 38%
    22:00 +2°C° 0 mm 1 m/s 765 mmHg 40%
    23:00 +1°C° 0 mm 1 m/s 765 mmHg 43%

    Amanhã, 19 Abril, Sexta-feira

    Tempo Temperatura Precipitação Vento Pressão Humidade
    00:00 -1°C° 0 mm 2 m/s 765 mmHg 45%
    01:00 +1°C° 0 mm 1 m/s 765 mmHg 46%
    02:00 +1°C° 0 mm 1 m/s 765 mmHg 48%
    03:00 +1°C° 0 mm 1 m/s 765 mmHg 50%
    04:00 -1°C° 0 mm 2 m/s 765 mmHg 49%
    05:00 -1°C° 0 mm 2 m/s 765 mmHg 49%
    06:00 -1°C° 0 mm 2 m/s 765 mmHg 49%
    07:00 +2°C° 0 mm 2 m/s 765 mmHg 44%
    08:00 +2°C° 0 mm 3 m/s 765 mmHg 39%
    09:00 +3°C° 0 mm 3 m/s 765 mmHg 33%
    10:00 +4°C° 0 mm 3 m/s 765 mmHg 32%
    11:00 +5°C° 0 mm 3 m/s 764 mmHg 31%
    12:00 +7°C° 0 mm 3 m/s 764 mmHg 29%
    13:00 +7°C° 0 mm 3 m/s 764 mmHg 31%
    14:00 +7°C° 0 mm 3 m/s 763 mmHg 32%
    15:00 +7°C° 0 mm 4 m/s 763 mmHg 33%
    16:00 +6°C° 0 mm 4 m/s 763 mmHg 36%
    17:00 +7°C° 0 mm 3 m/s 763 mmHg 40%
    18:00 +5°C° 0 mm 3 m/s 763 mmHg 43%
    19:00 +5°C° 0 mm 2 m/s 763 mmHg 47%
    20:00 +4°C° 0 mm 2 m/s 763 mmHg 51%
    21:00 +4°C° 0 mm 1 m/s 763 mmHg 54%
    22:00 +4°C° 0 mm 1 m/s 763 mmHg 56%
    23:00 +2°C° 0 mm 0 m/s 763 mmHg 57%

    Depois de amanhã, 20 Abril, Sábado

    Tempo Temperatura Precipitação Vento Pressão Humidade
    00:00 +2°C° 0 mm 0 m/s 763 mmHg 59%
    01:00 +2°C° 0 mm 0 m/s 763 mmHg 59%
    02:00 +1°C° 0 mm 0 m/s 763 mmHg 60%
    03:00 +1°C° 0 mm 0 m/s 763 mmHg 61%
    04:00 +2°C° 0 mm 0 m/s 763 mmHg 60%
    05:00 +2°C° 0 mm 0 m/s 763 mmHg 58%
    06:00 +3°C° 0 mm 0 m/s 763 mmHg 56%
    07:00 +4°C° 0 mm 0 m/s 763 mmHg 51%
    08:00 +6°C° 0 mm 0 m/s 763 mmHg 46%
    09:00 +7°C° 0 mm 0 m/s 763 mmHg 41%
    10:00 +9°C° 0 mm 1 m/s 763 mmHg 40%
    11:00 +9°C° 0 mm 1 m/s 763 mmHg 39%
    12:00 +10°C° 0 mm 1 m/s 763 mmHg 37%
    13:00 +9°C° 0 mm 2 m/s 762 mmHg 38%
    14:00 +9°C° 0 mm 2 m/s 762 mmHg 39%
    15:00 +10°C° 0 mm 2 m/s 762 mmHg 41%
    16:00 +9°C° 0 mm 2 m/s 762 mmHg 43%
    17:00 +9°C° 0 mm 2 m/s 762 mmHg 45%
    18:00 +9°C° 0 mm 2 m/s 762 mmHg 48%
    19:00 +8°C° 0 mm 2 m/s 763 mmHg 52%
    20:00 +7°C° 0 mm 2 m/s 763 mmHg 55%
    21:00 +7°C° 0 mm 1 m/s 763 mmHg 59%
    22:00 +7°C° 0 mm 1 m/s 763 mmHg 62%
    23:00 +6°C° 0 mm 1 m/s 763 mmHg 65%

    21 Abril, Domingo

    Tempo Temperatura Precipitação Vento Pressão Humidade
    00:00 +5°C° 0 mm 1 m/s 763 mmHg 68%
    01:00 +5°C° 0 mm 1 m/s 764 mmHg 70%
    02:00 +5°C° 0 mm 1 m/s 764 mmHg 73%
    03:00 +4°C° 0 mm 1 m/s 764 mmHg 75%
    04:00 +4°C° 0 mm 1 m/s 764 mmHg 76%
    05:00 +4°C° 0 mm 2 m/s 764 mmHg 76%
    06:00 +4°C° 0 mm 2 m/s 764 mmHg 76%
    07:00 +5°C° 0 mm 2 m/s 764 mmHg 70%
    08:00 +7°C° 0 mm 3 m/s 764 mmHg 64%
    09:00 +8°C° 0 mm 3 m/s 764 mmHg 57%
    10:00 +9°C° 0 mm 3 m/s 764 mmHg 54%
    11:00 +9°C° 0 mm 3 m/s 764 mmHg 52%
    12:00 +10°C° 0 mm 3 m/s 763 mmHg 49%
    13:00 +10°C° 0 mm 4 m/s 763 mmHg 49%
    14:00 +10°C° 0 mm 4 m/s 763 mmHg 48%
    15:00 +10°C° 0 mm 4 m/s 763 mmHg 47%
    16:00 +8°C° 0 mm 4 m/s 763 mmHg 50%
    17:00 +9°C° 0 mm 3 m/s 763 mmHg 52%
    18:00 +9°C° 0 mm 3 m/s 763 mmHg 54%
    19:00 +8°C° 0 mm 2 m/s 763 mmHg 58%
    20:00 +8°C° 0 mm 1 m/s 763 mmHg 62%
    21:00 +7°C° 0 mm 1 m/s 763 mmHg 65%
    22:00 +7°C° 0 mm 1 m/s 763 mmHg 65%
    23:00 +7°C° 0 mm 1 m/s 763 mmHg 64%

    22 Abril, Segunda-feira

    Tempo Temperatura Precipitação Vento Pressão Humidade
    00:00 +6°C° 0 mm 2 m/s 763 mmHg 64%
    01:00 +6°C° 0 mm 2 m/s 763 mmHg 64%
    02:00 +6°C° 0 mm 2 m/s 763 mmHg 65%
    03:00 +6°C° 0 mm 2 m/s 763 mmHg 65%
    04:00 +6°C° 0 mm 2 m/s 763 mmHg 66%
    05:00 +6°C° 0 mm 2 m/s 763 mmHg 67%
    06:00 +6°C° 0 mm 2 m/s 763 mmHg 68%
    07:00 +8°C° 0 mm 2 m/s 763 mmHg 63%
    08:00 +10°C° 0 mm 2 m/s 763 mmHg 58%
    09:00 +12°C° 0 mm 2 m/s 763 mmHg 54%
    10:00 +12°C° 0 mm 3 m/s 763 mmHg 51%
    11:00 +13°C° 0 mm 3 m/s 763 mmHg 48%
    12:00 +14°C° 0 mm 4 m/s 763 mmHg 45%
    13:00 +14°C° 0 mm 4 m/s 762 mmHg 47%
    14:00 +14°C° 0 mm 3 m/s 762 mmHg 50%
    15:00 +13°C° 0 mm 3 m/s 762 mmHg 52%
    16:00 +13°C° 0 mm 3 m/s 762 mmHg 54%
    17:00 +14°C° 0 mm 2 m/s 762 mmHg 57%
    18:00 +13°C° 0 mm 1 m/s 762 mmHg 60%
    19:00 +12°C° 0 mm 1 m/s 762 mmHg 63%
    20:00 +11°C° 0 mm 1 m/s 762 mmHg 67%
    21:00 +10°C° 0 mm 1 m/s 762 mmHg 71%
    22:00 +10°C° 0 mm 1 m/s 762 mmHg 72%
    23:00 +10°C° 0 mm 1 m/s 762 mmHg 73%

    23 Abril, Terça-feira

    Tempo Temperatura Precipitação Vento Pressão Humidade
    00:00 +8°C° 0 mm 2 m/s 762 mmHg 74%
    01:00 +8°C° 0 mm 2 m/s 762 mmHg 75%
    02:00 +7°C° 0 mm 2 m/s 762 mmHg 76%
    03:00 +7°C° 0 mm 2 m/s 762 mmHg 78%
    04:00 +7°C° 0 mm 2 m/s 762 mmHg 77%
    05:00 +7°C° 0 mm 2 m/s 763 mmHg 75%
    06:00 +7°C° 0 mm 2 m/s 763 mmHg 74%
    07:00 +9°C° 0 mm 3 m/s 762 mmHg 67%
    08:00 +11°C° 0 mm 3 m/s 762 mmHg 60%
    09:00 +13°C° 0 mm 4 m/s 762 mmHg 52%
    10:00 +14°C° 0 mm 4 m/s 762 mmHg 48%
    11:00 +15°C° 0 mm 5 m/s 762 mmHg 44%
    12:00 +16°C° 0 mm 5 m/s 761 mmHg 40%
    13:00 +16°C° 0 mm 5 m/s 761 mmHg 39%
    14:00 +16°C° 0 mm 5 m/s 761 mmHg 38%
    15:00 +16°C° 0 mm 5 m/s 761 mmHg 37%
    16:00 +15°C° 0 mm 5 m/s 761 mmHg 41%
    17:00 +15°C° 0 mm 4 m/s 761 mmHg 46%
    18:00 +14°C° 0 mm 3 m/s 761 mmHg 50%
    19:00 +13°C° 0 mm 3 m/s 761 mmHg 56%
    20:00 +12°C° 0 mm 3 m/s 761 mmHg 62%
    21:00 +11°C° 0 mm 3 m/s 761 mmHg 68%
    22:00 +10°C° 0 mm 3 m/s 761 mmHg 71%
    23:00 +10°C° 0 mm 3 m/s 761 mmHg 73%
    Mostrar mais